Theta_e
338 337 338 339 340 341 344 345 345 346 346 346 345 346 346 345 344 344 344 344 344 343 340 338 337 340 345 342 345 344 343 343 343 342 342 342 342 342 341 341 341 342 342 343 343 343 344 344 345 345 346 346 347 337 334 334 334 334 330 333 336 331
337 336 337 338 339 339 340 341 338 339 341 343 345 344 341 341 344 338 343 340 339 343 339 338 338 346 343 343 345 345 344 344 343 343 343 343 343 342 342 342 341 342 342 343 343 335 337 342 344 346 347 348 340 335 334 333 333 328 333 332 334 334
335 335 336 336 338 338 336 335 337 338 341 344 343 341 337 338 333 336 337 338 340 339 340 340 339 343 343 347 345 345 346 346 345 345 345 344 344 344 343 343 342 342 343 344 338 333 334 332 333 342 343 338 333 334 334 334 330 330 332 332 331 338
335 334 334 334 335 334 335 334 336 336 336 337 336 337 335 337 336 334 335 336 338 339 338 336 345 345 346 344 342 348 347 347 347 346 346 345 345 345 345 345 344 343 344 341 335 332 333 331 331 332 334 335 333 334 334 334 332 327 329 335 332 342
333 334 335 336 337 335 335 336 336 337 336 337 335 334 335 336 337 336 337 337 335 338 336 334 334 335 335 338 338 339 341 339 341 339 346 338 337 339 338 335 335 338 335 335 334 332 329 328 333 334 334 335 335 335 334 337 333 325 328 334 334 343
335 335 334 335 336 338 340 336 335 335 338 338 338 336 334 333 334 336 337 336 337 332 333 334 333 333 335 335 337 337 340 338 338 342 343 340 338 338 337 337 337 337 335 334 333 331 328 333 329 333 334 335 335 336 335 335 333 326 328 330 334 343
330 332 333 334 337 339 336 337 335 336 336 336 337 335 334 335 334 336 337 337 334 333 332 333 333 332 333 335 336 337 338 339 339 339 342 340 338 338 337 337 336 337 336 334 333 330 331 336 335 334 334 335 336 337 337 336 335 328 328 329 335 343
329 331 331 334 337 336 336 337 338 342 337 343 339 333 334 335 336 335 337 337 338 333 331 330 331 330 331 332 336 338 338 338 339 339 339 340 338 337 337 336 337 336 336 333 332 335 336 336 336 334 333 333 335 337 336 336 334 329 328 329 332 342
329 331 331 333 335 335 336 336 337 336 336 344 333 335 335 336 336 336 338 337 340 333 332 330 329 330 330 331 332 335 335 338 339 339 338 339 339 337 335 335 335 335 335 334 334 335 336 335 334 334 333 333 334 334 336 336 335 333 332 329 331 337
329 330 331 332 332 332 333 333 334 335 336 342 334 336 337 334 335 336 335 336 336 334 331 330 330 330 330 330 332 333 335 336 337 338 338 338 337 335 335 333 333 332 332 332 332 333 336 333 333 333 332 332 335 336 338 337 336 336 335 334 332 336
329 334 331 330 331 331 333 332 335 334 336 338 337 340 338 334 334 334 334 335 334 337 333 332 330 330 331 331 332 333 335 335 334 334 336 337 336 335 334 333 333 332 331 331 332 333 336 334 332 332 333 333 334 337 338 338 337 336 335 335 334 334
327 328 331 328 329 330 331 331 335 333 335 336 339 336 335 334 337 333 333 334 334 332 335 330 330 331 331 332 332 331 330 333 333 333 334 335 334 335 335 334 334 334 334 335 335 335 333 332 331 331 331 332 334 335 336 334 336 337 334 333 334 334
326 327 327 328 328 329 330 332 331 332 334 338 335 336 334 332 331 334 334 334 333 334 335 331 330 331 334 329 328 327 327 329 329 332 333 334 334 333 332 332 332 334 333 333 333 332 334 332 331 330 331 332 335 335 336 335 335 335 336 335 334 334
328 326 329 326 329 326 328 328 332 331 336 331 324 332 336 333 336 333 331 330 330 333 330 329 328 327 327 327 327 327 327 327 330 333 335 334 332 332 331 330 331 331 336 335 330 331 332 331 331 331 331 334 335 336 335 335 335 335 336 336 335 333
330 324 325 324 324 325 327 324 322 324 324 326 325 324 322 326 327 329 329 329 330 332 331 330 328 327 326 326 326 326 326 327 331 332 331 333 332 332 332 331 332 332 332 331 330 334 332 331 330 331 330 331 332 334 333 334 334 335 336 336 333 334
326 324 323 328 325 324 323 324 322 332 323 325 325 326 325 326 327 327 328 327 328 332 329 329 329 327 325 325 324 325 326 328 330 330 330 330 330 330 329 331 332 332 329 329 330 329 330 329 328 328 329 329 330 332 331 332 333 334 335 334 336 335
323 323 324 324 323 321 319 320 324 324 325 324 324 325 326 325 325 326 325 325 326 330 327 326 326 327 326 324 324 325 326 328 329 328 328 328 328 330 328 329 327 331 328 326 326 327 327 329 328 329 329 329 331 331 331 332 333 333 336 335 335 336
321 323 321 320 323 321 322 323 322 322 332 323 323 324 325 325 324 324 325 325 324 326 330 326 326 325 325 327 325 325 325 327 328 327 328 327 326 327 327 326 326 325 328 326 325 325 326 327 331 331 329 331 331 330 330 331 333 337 333 333 333 334
322 319 319 319 320 322 320 319 319 323 323 323 323 322 323 322 323 324 324 325 327 327 329 327 328 327 326 326 324 325 324 325 326 326 325 325 326 327 327 324 325 326 326 327 326 325 325 326 327 327 328 328 329 330 330 331 333 334 333 333 333 333
320 319 322 320 319 319 321 321 318 321 322 324 322 325 322 322 322 322 328 326 326 325 326 329 327 326 327 327 324 324 324 325 327 325 326 325 324 324 323 322 323 326 323 324 325 325 324 324 323 322 324 324 325 327 326 329 330 332 331 330 330 331
318 323 323 320 317 316 317 318 318 317 322 321 322 323 322 321 323 325 326 327 327 327 326 327 329 327 325 328 325 324 325 325 326 328 326 325 325 327 326 324 324 324 322 320 321 324 325 322 320 318 318 319 321 323 327 325 325 328 329 329 330 330
320 320 320 318 319 318 317 317 317 316 318 322 322 320 319 320 324 327 326 326 326 325 326 326 330 328 328 326 326 325 325 324 325 326 325 325 325 329 323 323 322 319 321 321 320 323 325 321 317 316 314 316 316 319 321 323 324 327 328 328 328 328
318 317 319 322 317 319 320 322 318 319 318 319 319 321 319 326 328 324 323 325 326 325 326 326 326 330 328 327 326 325 325 324 325 327 323 323 322 323 322 322 322 320 318 320 321 324 324 321 317 317 316 313 309 313 316 319 322 325 327 327 328 329
319 317 316 322 325 319 322 323 323 321 321 320 321 326 323 323 323 323 322 324 325 325 326 325 326 327 326 325 325 324 324 324 324 325 322 321 322 322 322 322 322 323 319 317 319 319 326 323 320 315 312 312 311 310 306 311 317 320 325 326 327 328
318 316 317 324 319 323 323 319 321 321 321 318 318 317 319 319 321 326 323 322 324 325 325 325 325 326 328 324 323 324 324 324 324 324 324 323 321 321 321 321 320 321 319 317 317 317 320 324 323 324 314 312 310 308 309 311 315 316 321 324 325 327
318 316 316 319 321 321 322 319 318 318 315 313 312 313 314 315 317 318 320 323 324 325 324 324 324 325 326 327 323 323 322 324 323 324 325 322 321 322 322 321 322 320 320 320 318 316 317 321 323 325 322 315 313 310 311 312 311 309 320 322 324 325
317 317 319 319 321 324 317 317 317 316 315 312 310 311 312 315 318 320 321 322 323 323 323 323 323 323 324 326 323 323 322 322 323 322 326 322 321 321 322 322 325 321 320 322 319 315 316 318 317 322 323 322 323 321 318 314 310 311 312 316 321 323
318 321 318 319 319 324 317 317 315 316 317 313 312 313 319 319 319 322 320 321 322 321 323 323 323 323 323 325 325 322 322 322 322 324 325 320 320 320 322 323 324 321 322 323 319 318 316 316 315 317 322 320 321 321 320 318 316 312 311 312 316 322
318 320 318 320 318 319 321 317 315 315 316 317 314 317 321 324 321 321 319 319 321 320 321 321 322 322 321 322 325 322 321 321 321 322 323 322 320 320 320 320 320 321 320 320 323 321 317 316 316 317 317 317 318 317 317 318 318 317 311 311 311 314
318 316 316 318 318 317 322 320 314 315 312 311 317 318 317 317 318 317 317 318 318 319 319 319 320 320 320 321 321 322 322 321 320 323 324 319 319 319 319 319 318 319 319 319 319 320 319 317 317 318 318 316 314 314 315 315 315 314 314 312 312 311
316 316 317 317 317 317 317 315 314 313 312 312 313 314 315 316 317 318 318 317 317 317 317 318 317 318 318 319 319 323 321 322 322 323 322 320 319 318 318 317 318 318 319 318 319 318 319 318 318 318 317 316 315 315 314 312 313 313 311 310 311 312
316 316 316 317 318 317 317 316 315 314 313 312 314 316 315 315 316 318 319 318 316 317 316 316 315 315 316 316 319 317 321 319 321 319 319 318 318 318 317 317 317 317 316 316 317 318 316 316 316 316 316 316 316 315 317 315 315 314 315 314 313 313
315 315 315 316 316 316 315 315 315 315 314 315 314 315 315 316 315 316 316 316 314 313 313 314 313 314 314 315 318 316 318 318 318 320 319 318 317 316 315 316 316 315 315 315 315 315 314 313 314 313 314 316 316 317 317 316 317 315 314 315 314 313
315 315 314 316 316 315 315 315 315 314 313 317 313 316 314 316 315 315 316 314 314 313 313 312 312 313 314 317 317 319 319 319 320 318 321 319 317 317 316 315 315 315 314 313 315 314 313 313 312 313 314 313 312 312 313 315 315 315 314 313 312 314
314 315 315 316 316 315 315 316 316 314 316 317 315 316 315 317 316 315 314 314 312 312 312 312 313 314 316 315 318 318 319 318 319 318 317 316 318 316 314 315 316 314 314 312 313 313 312 312 312 311 312 311 313 313 313 314 314 315 315 314 313 314
316 316 316 318 316 317 314 314 314 313 314 320 319 316 317 316 315 315 314 313 313 312 312 312 312 313 314 316 316 317 317 317 318 317 317 316 315 315 313 312 312 311 311 316 312 311 310 310 310 310 310 310 311 310 311 312 313 312 312 312 314 314
315 316 316 318 316 316 315 314 313 313 314 317 317 315 314 313 314 314 314 313 313 312 312 310 313 316 313 314 315 315 315 316 317 316 316 315 314 313 312 311 310 310 309 309 312 310 309 310 309 309 309 310 308 310 309 310 311 312 311 312 314 313
Wind_Speed
3 2 2 2 3 3 5 7 5 8 8 7 6 6 5 4 5 6 5 6 5 4 3 3 3 2 1 1 2 2 2 2 2 3 3 4 4 4 3 2 1 1 2 3 3 3 4 5 6 6 6 6 6 2 2 3 2 3 5 6 6 6
3 2 2 3 3 3 3 4 3 2 2 3 4 4 1 1 3 1 3 2 2 3 3 3 2 3 3 2 4 4 3 3 3 4 4 5 5 6 6 5 4 4 4 4 5 3 3 4 6 6 7 7 4 2 3 3 3 2 5 5 6 7
3 3 3 2 2 2 1 1 1 1 1 2 3 2 0 2 0 0 0 1 2 2 3 3 1 2 2 5 3 5 5 5 5 5 5 5 6 6 6 6 7 6 6 6 4 3 4 4 5 8 6 3 3 0 1 2 0 5 5 5 5 10
3 2 2 1 1 1 1 1 2 1 1 1 0 1 1 1 0 1 0 0 0 2 2 2 3 5 5 3 3 5 7 7 6 6 7 5 5 5 6 5 6 8 5 4 4 3 3 4 5 5 5 5 3 2 2 0 1 4 4 5 5 12
2 2 2 3 3 2 2 1 1 0 0 0 0 1 1 1 1 1 1 0 0 1 2 2 1 2 2 2 3 3 4 3 1 2 5 3 3 3 3 2 3 4 4 4 5 4 3 5 4 5 5 5 4 3 1 1 2 4 5 5 6 12
2 2 2 3 3 3 3 1 1 1 0 0 0 1 1 2 1 1 0 0 0 1 2 2 3 2 2 2 3 4 4 3 2 3 3 4 4 4 3 3 3 3 4 4 4 4 3 3 5 5 5 4 5 3 1 3 4 5 5 5 5 13
3 2 2 1 1 0 1 0 1 1 1 0 0 1 0 1 1 1 1 1 2 3 3 3 3 3 2 2 3 4 4 4 3 4 4 4 5 4 4 4 4 4 4 4 4 4 4 3 3 4 4 4 4 5 3 3 4 5 5 5 5 12
2 1 0 1 0 1 0 0 2 0 1 2 1 0 1 1 2 0 0 1 1 1 0 1 0 1 2 2 2 3 4 4 4 4 4 4 5 5 5 4 3 4 4 3 3 4 4 4 4 3 3 4 4 5 5 3 3 4 5 5 4 9
2 3 3 4 3 3 3 2 2 2 1 2 1 2 2 2 2 1 0 0 0 1 1 1 3 2 2 2 3 3 4 4 4 5 3 4 5 5 5 4 4 5 4 4 3 5 4 5 5 4 4 4 4 4 4 2 3 3 4 5 5 6
3 4 3 3 2 2 2 3 2 3 3 2 1 2 2 1 1 2 4 1 0 1 2 2 3 3 4 5 5 4 3 4 4 5 4 5 5 5 5 4 5 5 5 5 3 5 5 6 5 4 3 4 5 5 5 3 4 4 4 5 4 4
3 3 3 2 2 2 2 4 4 4 4 3 3 3 4 4 3 2 1 2 2 0 1 2 3 4 3 4 5 5 6 3 4 4 4 6 4 5 4 5 5 5 5 5 5 4 4 5 5 4 3 4 5 3 3 3 2 2 3 4 4 4
2 3 2 2 2 2 2 2 2 2 3 4 3 2 3 3 4 5 4 3 0 0 0 2 2 3 3 3 3 4 4 3 3 4 5 5 5 4 4 4 4 4 5 5 6 4 2 2 5 5 3 4 4 5 5 3 3 3 3 3 4 4
1 1 2 2 2 2 2 2 2 2 3 3 3 3 3 3 2 2 1 1 2 2 2 2 2 2 1 1 2 3 5 4 3 5 2 3 3 2 2 3 4 5 5 5 5 4 2 3 4 5 3 5 4 5 5 4 3 3 3 3 4 4
1 1 1 1 1 2 3 4 2 2 3 3 3 0 0 0 2 3 4 2 2 2 2 0 1 1 1 3 4 4 5 6 5 6 3 0 3 5 4 2 3 1 3 1 0 0 0 4 5 4 5 5 3 4 4 3 4 5 3 4 4 4
0 0 1 2 2 2 1 2 1 0 0 3 5 6 4 3 5 4 4 4 3 4 4 5 4 5 5 4 5 5 5 5 5 3 2 1 1 1 0 1 1 0 2 2 2 3 1 2 4 5 5 5 4 2 2 3 4 4 5 3 2 4
0 1 1 1 1 2 2 2 2 3 5 4 6 5 5 5 5 5 5 5 4 4 3 3 3 2 3 3 3 4 4 5 4 4 5 5 3 4 2 4 2 1 3 3 4 4 2 2 3 2 3 2 3 2 2 2 4 5 2 2 4 3
1 1 1 2 2 2 3 4 2 3 4 4 6 5 4 5 5 3 3 2 2 2 2 3 3 3 1 2 3 3 4 3 3 3 3 3 4 3 3 3 4 3 2 2 3 3 4 3 2 2 3 5 5 3 3 4 4 4 3 5 4 4
2 2 1 1 2 3 4 4 4 4 3 5 4 3 4 4 4 3 2 1 2 4 4 4 4 3 1 2 1 2 2 3 2 3 3 3 3 2 3 3 4 3 3 3 5 4 4 3 2 2 2 3 5 4 4 4 4 4 4 5 4 2
1 1 1 1 2 3 3 3 2 3 3 4 4 3 3 4 3 3 4 4 4 4 4 4 4 4 4 3 3 3 3 3 2 3 3 3 3 3 3 3 3 4 4 3 3 3 2 3 2 0 0 1 2 4 5 5 3 4 4 4 7 5
1 1 1 1 2 3 2 3 2 4 4 3 3 3 2 2 2 4 3 4 3 3 3 3 3 3 4 3 3 3 3 3 3 3 4 5 4 4 3 4 4 2 3 4 3 3 3 3 1 2 3 3 0 1 3 3 4 3 3 4 4 3
2 1 0 0 0 0 1 0 1 1 0 1 2 1 2 2 4 4 3 3 3 3 3 3 3 3 4 3 3 3 4 4 3 3 4 4 4 4 3 2 2 1 2 4 3 4 5 2 3 3 3 3 4 2 4 5 9 8 7 6 5 4
1 1 1 2 2 1 1 2 2 1 1 1 2 2 0 2 3 3 3 3 3 3 4 3 3 3 3 3 4 4 3 4 4 4 3 3 4 4 5 5 3 2 2 1 1 2 5 2 2 1 1 4 4 4 2 5 10 10 7 5 4 5
3 3 2 2 2 1 0 1 1 1 2 1 1 0 1 2 2 3 3 3 3 4 4 3 3 3 3 4 4 4 3 4 4 3 5 5 4 5 4 4 4 2 2 2 1 1 4 2 1 0 0 1 2 2 4 6 6 9 7 5 5 7
3 2 3 1 1 0 0 1 2 2 1 1 3 2 4 3 3 3 3 3 3 3 3 3 3 4 3 4 4 3 3 4 4 3 3 4 4 4 4 3 3 2 2 2 2 2 4 4 0 2 0 0 2 3 0 3 5 5 5 6 7 7
4 3 2 1 1 0 1 2 3 3 2 3 4 5 4 3 2 0 1 3 3 3 3 4 4 4 4 3 3 4 4 3 4 4 3 4 3 3 2 2 1 2 2 3 1 1 3 3 4 1 3 2 1 2 2 2 4 4 3 5 6 6
3 3 2 1 1 2 2 1 2 1 1 2 1 2 2 3 1 2 2 1 4 5 4 4 4 4 4 4 4 4 3 4 4 5 4 3 3 3 4 3 3 1 2 1 3 2 1 2 2 4 2 1 3 4 4 2 4 3 4 6 4 6
4 3 2 1 3 3 1 1 1 2 3 3 3 1 1 2 3 1 1 3 4 4 4 5 4 4 4 4 4 4 4 3 3 3 3 4 4 3 3 3 3 3 3 1 1 2 1 1 2 4 4 4 3 2 1 3 2 5 5 2 3 3
3 3 2 1 1 1 2 3 1 2 3 3 3 2 3 2 1 1 3 3 5 4 4 4 4 4 4 4 3 3 3 4 3 3 3 3 3 3 3 4 3 3 3 4 3 3 1 2 3 0 2 3 3 3 3 3 2 4 6 6 4 5
3 2 2 1 1 0 2 2 2 3 2 1 2 4 3 0 1 1 3 3 4 3 3 4 3 3 3 4 3 3 3 3 3 3 2 4 3 3 3 3 4 5 4 4 3 1 2 3 2 0 1 3 3 4 4 3 3 3 3 5 3 4
3 3 3 2 2 1 1 3 2 1 3 1 1 1 1 2 1 2 4 4 3 4 3 4 4 3 4 3 3 3 3 3 3 2 2 3 3 3 3 3 3 3 3 4 3 3 2 2 2 2 1 0 2 2 3 4 3 3 5 3 6 4
3 3 3 3 2 1 1 2 3 2 2 2 2 2 3 3 3 4 5 3 3 3 3 3 4 3 3 3 3 2 2 2 2 2 3 3 3 3 3 3 3 4 4 4 4 4 4 3 3 3 3 3 2 2 2 2 1 1 2 3 5 5
2 3 3 3 2 0 1 2 3 3 3 1 4 4 5 4 4 6 4 4 1 2 2 2 3 4 4 4 3 2 1 2 2 2 3 2 2 2 2 3 3 4 3 3 4 4 4 5 4 3 3 2 2 2 3 3 1 1 4 4 6 7
4 4 4 3 3 1 2 3 3 3 2 2 3 4 4 4 2 5 5 4 3 2 1 3 3 3 3 4 1 2 2 2 2 2 2 3 3 3 3 3 3 3 4 4 3 4 5 4 3 4 3 3 4 4 3 1 2 2 2 4 7 8
5 4 4 3 3 3 3 3 2 3 2 3 3 4 4 5 4 4 5 5 4 3 2 1 1 2 2 2 0 1 1 0 1 1 2 2 3 3 3 3 3 4 4 3 4 4 4 3 4 4 3 5 4 3 3 2 1 2 2 4 5 7
5 4 4 5 4 4 3 2 2 3 2 3 4 4 4 5 6 5 4 5 3 2 2 1 0 1 2 1 0 1 2 2 2 2 2 3 3 4 3 4 4 3 3 3 4 5 4 4 5 4 4 3 4 5 4 3 2 1 0 1 4 6
7 6 5 5 4 5 4 4 4 4 3 3 3 3 3 3 4 5 5 5 4 3 3 1 0 1 3 0 1 1 2 3 1 2 3 4 4 4 3 4 3 3 4 2 5 5 3 4 4 4 4 3 5 4 3 4 3 2 2 0 3 4
6 5 6 6 6 5 5 4 4 4 4 4 5 5 5 4 5 4 5 4 4 4 3 2 0 1 2 0 1 1 3 3 2 3 4 3 4 4 3 3 3 3 3 3 4 4 3 4 3 3 4 4 3 5 4 3 3 5 3 3 4 4
Wind_Direction
93 95 61 36 34 41 62 58 85 122 126 125 130 133 119 95 92 102 103 103 79 82 60 54 13 341 272 277 285 297 297 308 307 311 299 302 303 301 305 295 308 256 269 286 275 282 286 297 303 301 298 304 321 30 127 168 182 197 162 166 173 192
87 81 61 50 55 44 18 65 53 17 33 76 97 109 80 125 102 45 105 100 77 76 78 68 38 349 346 313 309 281 279 292 298 297 301 297 298 301 306 310 300 293 285 285 292 308 309 302 303 304 304 310 342 9 31 341 326 150 153 167 178 197
78 84 75 65 96 114 114 144 109 194 168 134 145 120 350 103 14 289 25 21 71 86 89 74 1 305 305 295 277 270 272 273 280 290 292 290 296 299 304 308 304 301 293 288 294 299 300 308 311 313 318 310 294 214 96 301 41 158 159 183 176 198
103 78 95 119 130 198 206 182 190 175 113 137 58 81 62 62 17 295 350 87 57 89 87 66 26 346 341 349 340 309 280 259 263 272 276 284 302 311 307 315 312 304 305 307 300 288 285 291 286 292 293 284 274 283 120 239 175 164 164 190 186 197
102 127 147 170 168 206 225 241 248 218 186 279 49 36 16 2 292 274 271 214 239 96 96 84 44 4 349 332 328 304 292 303 297 301 278 282 275 274 296 304 306 301 292 290 291 291 303 297 292 282 278 278 279 290 104 184 193 176 185 202 185 193
146 166 177 182 183 197 166 294 285 238 256 325 13 59 18 330 319 329 317 255 66 41 53 62 40 12 342 341 305 294 282 270 263 250 261 270 272 266 266 259 264 271 272 267 268 278 274 262 270 267 264 271 274 264 169 187 199 191 196 198 195 189
169 171 183 227 244 91 77 317 335 295 103 338 63 50 29 318 337 17 8 318 25 4 30 41 32 5 342 305 275 279 282 264 246 240 243 247 258 259 260 258 254 263 266 260 265 264 263 261 256 260 247 254 266 270 261 175 205 189 192 193 197 190
205 171 264 319 11 65 75 286 253 310 43 238 125 140 171 257 281 215 188 266 149 165 103 105 107 49 297 285 271 267 268 272 256 249 233 226 245 254 255 253 256 260 268 265 253 253 252 271 273 264 280 267 260 266 266 269 189 186 187 189 191 199
338 11 21 360 9 4 349 338 332 322 267 270 158 224 194 176 192 257 143 191 250 110 32 40 41 30 341 288 269 253 243 246 246 248 231 237 227 237 245 252 262 264 259 257 253 254 242 250 246 241 237 261 258 255 264 190 191 181 183 192 190 200
9 13 20 25 16 13 331 325 316 304 297 325 346 311 300 270 225 174 176 132 15 79 37 43 359 3 5 340 330 312 282 246 233 243 228 237 233 242 249 250 256 259 260 254 230 243 242 253 257 252 236 242 244 243 239 201 188 185 185 189 191 200
9 349 16 12 348 340 330 326 319 317 320 323 336 333 317 308 308 269 231 113 102 173 116 48 3 343 349 338 325 332 317 284 259 255 242 240 227 229 241 246 258 268 275 281 266 249 241 246 251 261 255 253 257 238 234 231 195 182 192 192 184 194
7 338 352 345 332 327 309 286 297 308 302 295 298 278 291 291 299 352 350 334 68 214 80 353 1 330 336 316 328 309 320 328 270 250 219 234 232 225 230 252 264 269 269 271 276 291 3 306 287 275 271 252 246 226 239 239 242 198 197 197 190 195
335 302 295 295 296 279 293 297 290 301 294 273 261 254 273 323 345 313 347 32 12 8 4 354 338 315 306 317 332 335 352 348 327 316 230 226 248 242 242 245 262 258 262 249 254 263 278 292 278 280 291 271 240 232 227 220 238 237 211 204 200 200
270 275 270 289 345 339 317 313 304 256 271 291 308 199 6 220 88 82 73 48 36 40 53 165 130 95 66 34 16 356 351 348 350 351 8 112 229 229 221 217 239 275 300 314 36 183 222 292 286 299 291 289 275 247 232 219 230 235 235 222 204 198
94 357 25 27 25 356 349 357 350 197 358 37 46 61 59 74 77 74 78 65 53 39 21 17 20 22 6 19 15 354 353 342 335 352 4 2 286 273 214 237 232 268 286 353 33 124 162 271 288 285 276 282 275 274 297 266 260 257 239 243 209 213
338 320 314 330 323 324 349 314 321 47 45 57 71 74 67 58 62 53 53 47 40 38 30 3 5 19 12 352 8 350 342 337 347 359 14 12 12 23 26 58 72 105 45 10 15 7 110 175 232 283 306 301 285 292 266 257 256 263 288 288 261 246
246 265 287 306 324 336 356 355 347 41 68 72 85 84 71 66 59 56 52 50 19 31 17 355 349 343 332 333 349 16 336 339 343 19 25 25 34 358 25 34 16 30 90 54 21 3 357 23 346 332 344 350 338 315 269 251 251 248 228 218 227 249
271 279 271 277 329 336 339 341 356 350 76 84 85 97 99 101 99 119 113 62 32 24 19 7 358 338 339 287 43 21 342 341 351 20 27 29 8 0 33 42 13 349 25 38 21 19 355 356 19 339 339 316 298 293 301 279 262 251 254 252 227 256
171 267 288 338 352 349 347 347 12 17 47 72 71 66 72 72 65 62 49 37 38 24 8 20 8 5 39 25 9 357 358 346 356 20 30 27 14 5 19 24 38 345 354 13 45 36 347 313 325 53 201 237 265 312 315 309 295 261 270 357 29 51
239 259 332 343 4 353 2 358 0 352 22 29 28 79 29 80 72 59 49 42 42 40 21 29 22 20 43 47 27 355 359 357 1 18 13 11 357 1 3 10 8 10 357 354 24 19 13 360 356 40 343 334 93 330 353 334 328 307 50 72 63 46
250 291 182 227 32 51 100 39 24 51 188 270 162 101 40 24 50 38 44 47 38 30 27 24 28 29 31 27 27 7 23 12 7 28 31 18 1 0 352 342 339 16 44 27 360 354 358 59 58 349 343 344 351 8 59 40 41 38 59 69 87 69
278 75 150 141 144 147 174 169 156 187 138 192 103 98 24 13 59 44 31 36 35 16 26 20 11 21 28 38 25 18 20 15 15 22 49 39 38 28 21 21 15 21 2 63 15 345 335 38 12 87 333 320 351 336 55 61 44 43 66 61 60 62
205 140 158 156 139 124 164 134 121 190 154 88 332 143 166 132 81 58 19 358 11 27 33 26 25 20 25 21 32 39 20 12 24 19 34 29 27 33 24 31 35 64 4 355 359 325 12 21 219 151 125 74 345 29 332 23 30 46 60 62 56 62
181 168 153 166 157 202 162 84 49 63 46 129 109 85 68 49 69 57 19 334 13 28 29 36 34 38 34 30 37 43 32 30 27 32 53 53 32 27 19 26 38 49 121 41 356 329 3 2 324 118 358 137 197 128 39 355 50 14 35 57 57 57
170 178 163 102 78 218 38 12 20 3 26 38 42 33 53 24 13 47 22 18 13 30 42 39 26 34 38 34 31 33 36 32 37 26 41 50 41 19 5 10 19 65 68 141 46 322 339 5 12 346 152 91 23 31 191 212 111 37 341 52 40 52
160 150 144 108 111 55 16 27 357 55 22 46 58 76 120 155 158 124 131 283 35 36 46 45 27 27 28 33 29 24 31 33 26 19 27 34 33 22 18 17 356 31 59 11 148 92 37 340 19 11 36 157 171 176 182 220 111 98 25 39 45 49
157 164 170 152 79 78 53 26 247 182 168 169 165 254 249 241 167 158 147 72 55 45 45 55 33 28 28 29 38 28 31 29 23 17 20 35 30 14 0 5 360 18 4 358 84 106 139 247 344 20 8 2 34 36 131 121 138 120 101 6 47 83
155 160 181 174 79 96 145 134 118 138 172 172 170 186 192 200 226 131 100 88 72 50 45 50 48 30 23 27 39 31 25 24 28 18 37 34 29 7 18 12 23 17 16 30 28 87 54 346 126 226 357 42 59 47 34 62 96 153 141 137 104 67
165 164 189 161 84 124 170 142 152 144 130 224 189 205 192 137 147 99 97 56 74 62 53 44 45 31 15 28 38 46 35 31 29 19 30 26 24 31 41 42 27 27 26 24 19 23 69 21 24 108 100 59 59 49 40 41 39 71 124 125 129 131
183 180 179 136 115 114 115 120 99 122 141 79 85 117 47 44 48 52 64 68 68 52 31 35 18 19 6 12 31 42 53 39 21 12 25 12 18 25 27 41 38 36 33 48 23 36 53 25 44 16 26 148 95 41 40 29 28 54 64 80 143 153
204 195 192 152 135 217 118 138 126 135 156 134 101 121 100 85 93 80 89 78 84 71 33 23 11 4 12 8 33 36 70 50 29 16 16 12 7 21 12 30 29 41 39 43 33 36 33 24 26 38 44 63 79 126 153 136 168 78 138 122 97 100
201 193 200 146 125 54 130 148 121 130 136 181 128 150 140 145 136 120 119 111 96 84 57 19 14 7 356 359 32 31 27 49 36 24 16 346 0 14 28 36 40 51 49 40 39 47 39 32 20 32 38 30 64 77 67 102 168 147 117 138 126 130
199 204 198 150 145 138 140 168 141 134 148 126 113 133 138 132 143 123 131 122 100 85 7 41 359 9 339 342 23 56 37 39 14 354 6 26 3 17 33 38 42 42 40 39 35 49 50 31 33 38 16 17 35 30 45 31 95 101 70 94 123 126
204 197 196 164 153 163 190 194 163 150 174 114 141 139 145 138 144 127 128 135 146 159 153 168 1 345 319 315 44 114 152 107 334 348 14 28 30 21 35 48 49 49 42 28 45 43 38 31 45 41 41 48 32 29 7 6 48 86 128 112 121 131
193 206 187 182 161 181 205 190 183 183 138 102 152 136 151 149 142 137 139 136 153 166 156 213 353 288 355 32 254 136 97 47 12 6 21 38 43 50 44 60 59 58 46 33 51 46 31 39 45 39 41 45 53 38 8 356 26 12 204 149 141 145
189 191 192 179 178 178 190 176 163 165 136 134 149 139 134 138 142 139 146 143 163 182 203 198 262 18 353 265 211 121 93 80 51 48 48 61 67 64 54 68 58 55 46 11 57 45 23 44 41 36 44 33 54 21 2 354 359 353 11 70 134 131
190 187 189 185 179 179 180 168 182 181 136 142 148 153 158 160 149 151 147 155 156 189 204 186 163 26 10 299 221 162 110 107 71 58 60 62 72 68 59 57 63 66 61 29 60 50 39 47 21 27 39 36 43 33 10 357 25 28 35 64 73 113